Salem, Oregon, United States (97301)
Lat: 44.94N, Lon: 123.03W
Wx Zone: ORZ007
Local Info
Past Weather Observations for Monday, November 24, 2014

NOTE: This archive is for the closest National Weather Service station to Salem. Information may differ from the station used for current weather conditions.

Click here for Long-term Archive

Time Weather Temperature Dewpoint Humidity Pressure Winds Precip Visibility
23:56
Overcast
55°F / 13°C 48°F / 9°C 77% 30.3 in
(1026 mb)
S 11.5 mph
(S 19 kph)
- 10SM
22:56
Overcast
54°F / 12°C 48°F / 9°C 82% 30.3 in
(1026 mb)
S 11.5 mph
(S 19 kph)
0.00 in
(0.00 mm)
10SM
22:25
Overcast
Light Rain
54°F / 12°C 46°F / 8°C 77% 30.3 in
(1026 mb)
S 12.7 mph
(S 20 kph)
0.00 in
(0.00 mm)
10SM
21:56
Overcast
54°F / 12°C 46°F / 8°C 77% 30.3 in
(1026 mb)
S 10.4 mph
(S 17 kph)
0.00 in
(0.00 mm)
10SM
20:56
Overcast
54°F / 12°C 46°F / 8°C 77% 30.27 in
(1025 mb)
S 10.4 mph
(S 17 kph)
- 10SM
19:56
Overcast
54°F / 12°C 45°F / 7°C 72% 30.27 in
(1025 mb)
S 9.2 mph
(S 15 kph)
- 10SM
19:17
Overcast
54°F / 12°C 43°F / 6°C 67% 30.27 in
(1025 mb)
S 10.4 mph
(S 17 kph)
- 10SM
18:56
Overcast
54°F / 12°C 41°F / 5°C 63% 30.27 in
(1025 mb)
S 12.7 mph
(S 20 kph)
- 10SM
17:56
Overcast
54°F / 12°C 41°F / 5°C 63% 30.27 in
(1025 mb)
S 12.7 mph
(S 20 kph)
- 10SM
16:56
Mostly Cloudy
54°F / 12°C 43°F / 6°C 67% 30.27 in
(1025 mb)
S 8.1 mph
(S 13 kph)
- 10SM
15:56
Overcast
52°F / 11°C 45°F / 7°C 77% 30.27 in
(1025 mb)
S 9.2 mph
(S 15 kph)
0.00 in
(0.00 mm)
10SM
14:56
Overcast
Light Rain
52°F / 11°C 43°F / 6°C 72% 30.27 in
(1025 mb)
S 9.2 mph
(S 15 kph)
0.00 in
(0.00 mm)
10SM
13:56
Overcast
54°F / 12°C 43°F / 6°C 67% 30.3 in
(1026 mb)
SSE 8.1 mph
(SSE 13 kph)
- 10SM
12:56
Partly Cloudy
52°F / 11°C 43°F / 6°C 72% 30.33 in
(1027 mb)
SSE 11.5 mph
(SSE 19 kph)
- 10SM
11:56
Clear
52°F / 11°C 43°F / 6°C 72% 30.33 in
(1027 mb)
S 9.2 mph
(S 15 kph)
- 10SM
10:56
Clear
52°F / 11°C 43°F / 6°C 72% 30.36 in
(1028 mb)
S 13.8 mph
(S 22 kph)
- 10SM
09:56
Clear
48°F / 9°C 43°F / 6°C 82% 30.36 in
(1028 mb)
S 4.6 mph
(S 7 kph)
- 10SM
08:56
Clear
46°F / 8°C 43°F / 6°C 87% 30.39 in
(1029 mb)
SE 3.5 mph
(SE 6 kph)
- 10SM
07:56
Clear
45°F / 7°C 41°F / 5°C 87% 30.36 in
(1028 mb)
SE 3.5 mph
(SE 6 kph)
- 10SM
06:56
Clear
45°F / 7°C 43°F / 6°C 93% 30.36 in
(1028 mb)
SSE 3.5 mph
(SSE 6 kph)
- 10SM
05:56
Partly Cloudy
45°F / 7°C 43°F / 6°C 93% 30.36 in
(1028 mb)
SSE 6.9 mph
(SSE 11 kph)
- 10SM
04:56
Overcast
48°F / 9°C 45°F / 7°C 87% 30.36 in
(1028 mb)
SE 5.8 mph
(SE 9 kph)
- 10SM
03:56
Overcast
48°F / 9°C 45°F / 7°C 87% 30.36 in
(1028 mb)
SSE 5.8 mph
(SSE 9 kph)
- 10SM
02:56
Overcast
48°F / 9°C 46°F / 8°C 94% 30.36 in
(1028 mb)
SSE 4.6 mph
(SSE 7 kph)
- 10SM
01:56
Overcast
48°F / 9°C 46°F / 8°C 94% 30.36 in
(1028 mb)
SSE 8.1 mph
(SSE 13 kph)
- 10SM
00:56
Overcast
48°F / 9°C 46°F / 8°C 94% 30.36 in
(1028 mb)
S 3.5 mph
(S 6 kph)
- 10SM
Time Weather Temperature Dewpoint Humidity Pressure Winds Precip Visibility


Weather for websites

WeatherForYou.com, LLC is not responsible for any damages or problems caused by this service. Current weather conditions are obtained from the closest station including government and personal stations which may have varying degrees of accuracy. Weather forecasts are derived from the NOAA NDFD. Like all things, this site belongs to Jesus Christ... He just trusts me to maintain it. If you have any questions or comments email webmaster@weatherforyou.com

Copyright © 2014, WeatherForYou.com LLC. All rights reserved.